DW0051 Weather Reports


Display with metric or nautical units.
time (UTC)temp
F
wind
direction
speed
MPH
gust
MPH
rain 1hr
in
rain 24hr
in
rain mn
in
humidity
%
barometer
mb
20260507210016 57 0.0 0.0 0.00 0.00 0.00 72 1016.0
20260507205015 58 0.0 0.0 0.00 0.00 0.00 72 1015.9
20260507204015 58 176 2.0 6.0 0.00 0.00 0.00 71 1015.8
20260507203016 58 0.0 0.0 0.00 0.00 0.00 71 1015.7
20260507202015 59 0.0 4.0 0.00 0.00 0.00 70 1015.6
20260507201016 59 182 2.0 8.0 0.00 0.00 0.00 69 1015.5
20260507200016 59 205 0.0 1.0 0.00 0.00 0.00 69 1015.5
20260507195015 59 0.0 5.0 0.00 0.00 0.00 69 1015.5
20260507194056 59 192 2.0 6.0 0.00 0.00 0.00 68 1015.5
20260507193015 60 192 1.0 4.0 0.00 0.00 0.00 68 1015.4
20260507192035 60 0.0 4.0 0.00 0.00 0.00 67 1015.3
20260507191015 60 0.0 2.0 0.00 0.00 0.00 66 1015.3
20260507190016 61 233 2.0 6.0 0.00 0.00 0.00 66 1015.0
20260507185016 61 205 1.0 4.0 0.00 0.00 0.00 65 1014.9
20260507184015 61 244 1.0 10.0 0.00 0.00 0.00 64 1014.7
20260507183035 61 213 5.0 8.0 0.00 0.00 0.00 64 1014.5
20260507182015 61 204 3.0 8.0 0.00 0.00 0.00 64 1014.4
20260507181016 61 165 0.0 6.0 0.00 0.00 0.00 64 1014.3
20260507180015 61 182 1.0 8.0 0.00 0.00 0.00 63 1014.3
20260507175018 62 229 3.0 7.0 0.00 0.00 0.00 62 1014.1
20260507174018 62 146 3.0 9.0 0.00 0.00 0.00 62 1014.1
20260507173038 62 248 0.0 4.0 0.00 0.00 0.00 61 1014.0
20260507172038 62 215 2.0 5.0 0.00 0.00 0.00 61 1013.9
20260507171018 63 198 1.0 5.0 0.00 0.00 0.00 60 1013.7
20260507170038 63 0.0 0.0 0.00 0.00 0.00 59 1013.5
20260507165018 63 195 1.0 7.0 0.00 0.00 0.00 57 1013.5
20260507164019 64 204 4.0 7.0 0.00 0.00 0.00 56 1013.5
20260507163018 64 198 4.0 7.0 0.00 0.00 0.00 54 1013.4
20260507162018 64 205 2.0 6.0 0.00 0.00 0.00 57 1013.4
20260507161018 65 206 1.0 4.0 0.00 0.00 0.00 58 1013.3
20260507160018 65 196 4.0 6.0 0.00 0.00 0.00 57 1013.3
20260507155018 66 190 1.0 6.0 0.00 0.00 0.00 55 1013.1
20260507154018 66 217 2.0 5.0 0.00 0.00 0.00 53 1013.2
20260507153018 67 222 3.0 6.0 0.00 0.00 0.00 52 1013.1
20260507152039 67 196 1.0 5.0 0.00 0.00 0.00 51 1012.9
20260507151018 67 215 1.0 8.0 0.00 0.00 0.00 51 1012.8
20260507150038 67 227 2.0 5.0 0.00 0.00 0.00 52 1012.9
20260507145018 68 0.0 4.0 0.00 0.00 0.00 51 1012.8
20260507144018 68 195 1.0 6.0 0.00 0.00 0.00 50 1012.9
20260507143038 69 219 2.0 5.0 0.00 0.00 0.00 48 1012.9
20260507142019 70 192 3.0 6.0 0.00 0.00 0.00 47 1012.8
20260507141018 70 216 0.0 1.0 0.00 0.00 0.00 48 1012.8
20260507140018 70 232 0.0 3.0 0.00 0.00 0.00 45 1012.7
20260507135018 71 191 1.0 3.0 0.00 0.00 0.00 45 1012.7
20260507134018 71 0.0 3.0 0.00 0.00 0.00 45 1012.8
20260507133018 72 201 1.0 4.0 0.00 0.00 0.00 45 1012.7
20260507132038 71 196 2.0 5.0 0.00 0.00 0.00 46 1012.8
20260507131039 71 158 1.0 3.0 0.00 0.00 0.00 45 1012.9
20260507130018 71 0.0 0.0 0.00 0.00 0.00 44 1013.0
20260507125018 72 0.0 0.0 0.00 0.00 0.00 43 1012.9
20260507124018 73 0.0 4.0 0.00 0.00 0.00 42 1013.0
20260507123058 73 168 2.0 7.0 0.00 0.00 0.00 43 1013.1
20260507122018 72 195 0.0 5.0 0.00 0.00 0.00 43 1013.2
20260507121018 72 161 2.0 7.0 0.00 0.00 0.00 43 1013.2
20260507120019 72 211 0.0 8.0 0.00 0.00 0.00 43 1013.4
20260507115018 72 173 1.0 2.0 0.00 0.00 0.00 44 1013.3
20260507112516 69 180 3.0 7.0 0.00 0.00 0.00 48 1013.6
20260507111515 68 223 3.0 10.0 0.00 0.00 0.00 50 1013.6
20260507110515 68 255 2.0 9.0 0.00 0.00 0.00 49 1013.7
20260507105515 68 0.0 6.0 0.00 0.00 0.00 51 1013.7
20260507104515 68 0.0 6.0 0.00 0.00 0.00 50 1013.8
20260507103537 67 254 0.0 5.0 0.00 0.00 0.00 52 1013.9
20260507102515 66 197 1.0 6.0 0.00 0.00 0.00 53 1014.0
20260507101516 66 276 1.0 9.0 0.00 0.00 0.00 53 1014.1
20260507100515 65 183 4.0 10.0 0.00 0.00 0.00 54 1014.1
20260507095515 64 196 1.0 6.0 0.00 0.00 0.00 55 1014.1
20260507094515 65 196 3.0 7.0 0.00 0.00 0.00 55 1014.1
20260507093515 65 226 2.0 7.0 0.00 0.00 0.00 56 1014.0
20260507092556 64 225 3.0 9.0 0.00 0.00 0.00 55 1014.0
20260507091535 65 218 1.0 8.0 0.00 0.00 0.00 55 1014.0
20260507090515 64 191 1.0 7.0 0.00 0.00 0.00 56 1013.9
20260507085515 64 215 3.0 8.0 0.00 0.00 0.00 57 1013.8
20260507084515 65 209 5.0 16.0 0.00 0.00 0.00 55 1013.9
20260507083515 65 194 6.0 15.0 0.00 0.00 0.00 56 1013.7
20260507082517 64 240 5.0 11.0 0.00 0.00 0.00 57 1013.6
20260507081538 64 240 1.0 11.0 0.00 0.00 0.00 57 1013.6
20260507080518 62 211 2.0 7.0 0.00 0.00 0.00 61 1013.5
20260507075517 62 120 1.0 11.0 0.00 0.00 0.00 60 1013.5
20260507074517 61 311 4.0 16.0 0.00 0.00 0.00 62 1013.5
20260507073517 61 221 4.0 9.0 0.00 0.00 0.00 62 1013.4
20260507072517 61 274 2.0 5.0 0.00 0.00 0.00 63 1013.3
20260507071517 61 207 5.0 8.0 0.00 0.00 0.00 63 1013.2
20260507070537 61 178 2.0 9.0 0.00 0.00 0.00 64 1013.0
20260507065537 60 182 2.0 11.0 0.00 0.00 0.00 65 1013.1
20260507064538 59 197 2.0 11.0 0.00 0.00 0.00 67 1013.1
20260507063517 58 212 1.0 8.0 0.00 0.00 0.00 68 1013.1
20260507062537 58 183 2.0 7.0 0.00 0.00 0.00 69 1013.1
20260507061517 57 0.0 11.0 0.00 0.00 0.00 69 1012.9
20260507060517 57 262 2.0 7.0 0.00 0.00 0.00 69 1012.9
20260507055517 57 0.0 0.0 0.00 0.00 0.00 69 1012.9
20260507054518 57 247 0.0 5.0 0.00 0.00 0.00 69 1012.7
20260507053517 57 0.0 6.0 0.00 0.00 0.00 69 1012.5
20260507052517 57 0.0 3.0 0.00 0.00 0.00 70 1012.5
20260507051517 57 0.0 0.0 0.00 0.00 0.00 71 1012.4
20260507050517 57 178 0.0 7.0 0.00 0.00 0.00 70 1012.2
20260507045517 56 164 2.0 7.0 0.00 0.00 0.00 71 1012.1
20260507044518 56 228 2.0 7.0 0.00 0.00 0.00 71 1011.9
20260507043517 56 0.0 5.0 0.00 0.00 0.00 71 1011.9
20260507042517 56 204 3.0 5.0 0.00 0.00 0.00 71 1011.9
20260507041517 56 0.0 7.0 0.00 0.00 0.00 71 1011.7
20260507040517 56 0.0 5.0 0.00 0.00 0.00 71 1011.6
20260507035516 56 210 5.0 9.0 0.00 0.00 0.00 71 1011.5
20260507034516 56 231 2.0 8.0 0.00 0.00 0.00 71 1011.5
20260507033537 56 222 1.0 9.0 0.00 0.00 0.00 71 1011.5
20260507032517 57 0.0 4.0 0.00 0.00 0.00 71 1011.4
20260507031517 57 185 2.0 5.0 0.00 0.00 0.00 70 1011.5
20260507030516 57 216 0.0 7.0 0.00 0.00 0.00 69 1011.5
20260507025517 57 220 2.0 4.0 0.00 0.00 0.00 69 1011.3
20260507024517 57 205 0.0 2.0 0.00 0.00 0.00 69 1011.3
20260507023517 57 177 0.0 4.0 0.00 0.00 0.00 69 1011.2
20260507022517 57 0.0 5.0 0.00 0.00 0.00 70 1011.1
20260507021517 57 240 0.0 3.0 0.00 0.00 0.00 70 1011.2
20260507020516 58 0.0 4.0 0.00 0.00 0.00 70 1011.1
20260507015516 58 0.0 0.0 0.00 0.00 0.00 71 1010.9
20260507014517 58 256 0.0 1.0 0.00 0.00 0.00 71 1010.8
20260507013516 58 253 0.0 6.0 0.00 0.00 0.00 71 1010.8
20260507012516 58 0.0 7.0 0.00 0.00 0.00 72 1010.6
20260507011516 58 216 1.0 6.0 0.00 0.00 0.00 72 1010.7
20260507010517 58 0.0 11.0 0.00 0.00 0.00 73 1010.3
20260507005516 58 0.0 5.0 0.00 0.00 0.00 73 1010.2
20260507004516 58 188 2.0 9.0 0.00 0.00 0.00 73 1010.2
20260507003537 59 0.0 4.0 0.00 0.00 0.00 73 1010.2
20260507002517 59 196 1.0 9.0 0.00 0.00 0.00 72 1010.2
20260507001517 59 219 2.0 10.0 0.00 0.00 0.00 72 1010.2
20260507000537 59 0.0 9.0 0.00 0.00 0.00 71 1010.2
20260506235518 59 227 1.0 7.0 0.00 0.00 0.00 71 1010.1
20260506234516 60 168 3.0 9.0 0.00 0.00 0.00 72 1009.9
20260506233517 60 218 1.0 16.0 0.00 0.00 0.00 72 1009.7
20260506232537 60 230 5.0 13.0 0.00 0.00 0.00 72 1009.7
20260506231516 60 209 3.0 9.0 0.00 0.00 0.00 72 1009.6
20260506230517 61 195 3.0 9.0 0.00 0.00 0.00 73 1009.3
20260506225516 61 201 7.0 15.0 0.00 0.00 0.00 75 1009.1
20260506224517 61 234 4.0 9.0 0.00 0.00 0.00 75 1009.0
20260506223516 61 187 2.0 6.0 0.00 0.00 0.00 75 1008.9
20260506222516 61 188 3.0 9.0 0.00 0.00 0.00 73 1008.8
20260506221516 62 226 3.0 12.0 0.00 0.00 0.00 71 1008.6
20260506220516 62 203 6.0 12.0 0.00 0.00 0.00 69 1008.3
20260506215536 63 233 4.0 11.0 0.00 0.00 0.00 68 1007.9
20260506214516 63 219 2.0 10.0 0.00 0.00 0.00 67 1007.5
20260506213517 63 210 6.0 11.0 0.00 0.00 0.00 67 1007.4
20260506212537 63 221 4.0 7.0 0.00 0.00 0.00 68 1007.1
20260506211517 60 233 3.0 9.0 0.00 0.00 0.00 70 1007.0